Weather in Anjar

Lebanon     33°43′44″N   35°55′56″E
В апреле 2022 года жителям России запретили посещать сайт meteo.paraplan.net по решению Генеральной прокуратуры. Аудитория сайта уменьшилась в 10 раз. Владельцы сайта не видят смысла в поддержке погодного сервера в таких условиях. Сайт будет закрыт в октябре.
temp.,
°C
wind,
m/s
gust,
m/s
humid.,
%
clouds,
%
prec.,
mm/h
press.,
hPa
HPBL,
m
4 october, tue
tue400:00+18sw22710 0.0 101015
03:00+16sw22700 0.0 101016
06:00+15sw12700 0.0 101113
09:00+22sw23390 0.0 1012426
12:00+27sw48220 0.0 10112122
15:00+28sw79241 0.0 10102448
18:00+23wsw45460 0.0 1012161
21:00+19ssw22730 0.0 101525
5 october, wed
wed500:00+17sw11730 0.0 101511
03:00+16sw22700 0.0 101513
06:00+15ssw11710 0.0 101511
09:00+21sw23400 0.0 1016424
12:00+27sw89200 0.0 10151682
15:00+26wsw78220 0.0 10141438
18:00+22sw45350 0.0 101597
21:00+17s22500 0.0 101712
6 october, thu
thu600:00+16ssw22390 0.0 101712
03:00+14ssw23400 0.0 101715
06:00+13ssw22490 0.0 101714
09:00+19sw12300 0.0 1016267
12:00+25wsw56140 0.0 10141346
15:00+25wsw67210 0.0 10131572
18:00+20wsw44450 0.0 101381
21:00+15ssw33560 0.0 101545
7 october, fri
fri700:00+14ssw34660 0.0 101556
03:00+12ssw33770 0.0 101546
06:00+10sw349330 0.0 101552
09:00+14sw35630 0.0 1015441
12:00+20wsw67380 0.0 10131304
15:00+21wsw66360 0.0 10111399
18:00+17sw55580 0.0 1012302
21:00+13sw33850 0.0 101460
8 october, sat
sat800:00+11ssw23920 0.0 101447
03:00+10ssw33921 0.0 101447
06:00+9ssw22880 0.0 101517
09:00+15sw11550 0.0 1015338
12:00+20wsw44360 0.0 10131364
15:00+21wsw66400 0.0 10111833
18:00+17wsw446912 0.0 1013478
21:00+14sw33852 0.1 101457